Weather Roundup
Issued by NWS Corpus Christi, TX

Home | Current Version | Previous Version | Text Only | Print | Product List | Glossary On
Versions: 1 2 3 4 5 6 7 8 9 10 11 12 13 14 15 16 17 18 19 20 21 22 23 24 25 26 27 28 29 30 31 32 33 34 35 36 37 38 39 40 41 42 43 44 45 46 47 48 49 50
000
ASUS44 KCRP 271610
HRRCRP

SOUTH TEXAS REGIONAL WEATHER ROUNDUP
NATIONAL WEATHER SERVICE CORPUS CHRISTI TX
1100 AM CDT SAT AUG 27 2016


TXZ229>244-271700-
...CORPUS CHRISTI AREA OBSERVATIONS...

CITY           SKY/WX    TMP DP  RH WIND       PRES   REMARKS
CORPUS CHRISTI PTSUNNY   89  77  67 N9        29.98S HX 101
NAS CORPUS CHR NOT AVBL
ROCKPORT       CLOUDY    85  74  69 N8        29.98R HX  92
ALICE          SUNNY     85  75  72 CALM      29.98S HX  93
FALFURRIAS     SUNNY     87  73  61 N5        29.97S HX  94
$$

...VICTORIA AREA OBSERVATIONS...

CITY           SKY/WX    TMP DP  RH WIND       PRES   REMARKS
VICTORIA       MOSUNNY   86  74  67 N6        30.01R HX  94
BEEVILLE       PTSUNNY   83  78  85 N5        30.00S HX  94
PLEASANTON     MOSUNNY   83  73  70 CALM      30.02S
SAN ANTONIO    MOSUNNY   84  72  67 SE8       30.03R
$$

...LAREDO AREA OBSERVATIONS...

CITY           SKY/WX    TMP DP  RH WIND       PRES   REMARKS
LAREDO         SUNNY     86  73  65 VRB7      30.00S HX  93
COTULLA        MOSUNNY   86  71  60 VRB3      30.00S HX  91
DEL RIO        SUNNY     82  73  74 SE7       30.01S
MCALLEN        MOSUNNY   90  74  59 CALM      29.97R HX  99
HEBBRONVILLE   SUNNY     86  69  57 E5        30.01S HX  90
$$

...OTHER TEXAS OBSERVATIONS...

CITY           SKY/WX    TMP DP  RH WIND       PRES   REMARKS
BROWNSVILLE    SUNNY     92  73  53 NE6       29.96S HX 100
HOUSTON        CLOUDY    81  75  82 NE7       30.02S
COL. STATION   PTSUNNY   83  73  72 N6        30.04R
AUSTIN         MOSUNNY   84  73  69 NE3       30.03R HX  90
WACO           MOSUNNY   83  75  77 E6        30.04S HX  90
FORT WORTH     MOSUNNY   83  72  69 SE7       30.04S
WICHITA FALLS  CLOUDY    83  69  62 S6        30.04R
LUBBOCK        MOSUNNY   79  64  60 SW13      30.11S
EL PASO        MOSUNNY   77  61  57 VRB5      30.12R
$$

...MARINE OBSERVATIONS...

STATION/POSITION TIME  SKY/WX   TEMP    WIND        PRES    VSBY  WAVE   SWELL
                                AIR SEA DIR/SP/G                  HT/PER HT/PER
                 (UTC)          (F)     (DEG/KT/KT) (MB)    (MI)  (FT/S) (FT/S)
PORT ARANSAS     1600            82 85   10/ 10/ 11 1015.3R
BUOY 90 E PORT A 1550            83 86  360/ 12/ 14 1014.6R         3/ 6   2/ 6
BUOY 45 SE BAFFI 1550            84 86  310/  8/ 10 1014.4R         2/ 6   2/ 6
BUOY 200 E PT IS 1550            84 87  340/  4/  6 1013.2R         3/ 7   2/ 7
BUOY 15 E GALVES 1550            82 85   30/ 12/ 14 1014.9F         2/ 6   2/ 6
$$




USA.gov is the U.S. government's official web portal to all federal, state and local government web resources and services.